TimeAKDT,TemperatureF,Dew PointF,Humidity,Sea Level PressureIn,VisibilityMPH,Wind Direction,Wind SpeedMPH,Gust SpeedMPH,PrecipitationIn,Events,Conditions,WindDirDegrees,DateUTC
12:53 AM,32.0,27.0,82,29.08,10.0,NE,3.5,-,N/A,,Overcast,40,2012-10-13 08:53:00
1:53 AM,34.0,28.9,82,29.08,10.0,Calm,Calm,-,N/A,,Mostly Cloudy,0,2012-10-13 09:53:00
2:53 AM,33.1,27.0,78,29.07,10.0,NE,4.6,-,N/A,,Overcast,40,2012-10-13 10:53:00
4:53 AM,37.0,27.0,67,29.05,10.0,NE,4.6,-,N/A,,Overcast,50,2012-10-13 12:53:00
6:53 AM,37.9,27.0,65,29.06,10.0,Calm,Calm,-,N/A,,Overcast,0,2012-10-13 14:53:00
7:53 AM,37.0,27.0,67,29.07,10.0,ENE,8.1,-,N/A,,Overcast,60,2012-10-13 15:53:00
8:53 AM,36.0,28.0,73,29.08,10.0,NE,6.9,-,N/A,,Overcast,50,2012-10-13 16:53:00
9:53 AM,37.0,28.9,73,29.09,10.0,NE,6.9,-,N/A,,Mostly Cloudy,50,2012-10-13 17:53:00
10:53 AM,37.0,28.9,73,29.11,10.0,NE,6.9,-,N/A,,Mostly Cloudy,50,2012-10-13 18:53:00
11:53 AM,39.0,28.9,67,29.11,10.0,ENE,8.1,-,N/A,,Mostly Cloudy,60,2012-10-13 19:53:00
12:53 PM,39.9,28.9,65,29.12,10.0,ENE,12.7,-,N/A,,Overcast,60,2012-10-13 20:53:00
1:53 PM,39.9,28.0,63,29.12,10.0,ENE,13.8,-,N/A,,Overcast,60,2012-10-13 21:53:00
2:53 PM,41.0,28.9,62,29.12,10.0,ENE,12.7,-,N/A,,Overcast,60,2012-10-13 22:53:00
3:53 PM,42.1,28.9,60,29.11,10.0,ENE,11.5,-,N/A,,Overcast,70,2012-10-13 23:53:00
4:53 PM,42.1,28.9,60,29.11,10.0,ENE,9.2,-,N/A,,Overcast,60,2012-10-14 00:53:00
5:53 PM,41.0,28.0,60,29.11,10.0,ENE,12.7,-,N/A,,Overcast,70,2012-10-14 01:53:00
6:53 PM,39.9,28.0,63,29.11,10.0,ENE,5.8,-,N/A,,Overcast,70,2012-10-14 02:53:00
7:53 PM,39.0,28.0,65,29.12,10.0,ENE,15.0,-,N/A,,Overcast,60,2012-10-14 03:53:00
9:53 PM,37.9,28.9,70,29.11,10.0,NE,3.5,-,N/A,,Overcast,50,2012-10-14 05:53:00
10:53 PM,37.0,30.0,76,29.10,10.0,ENE,10.4,-,N/A,,Overcast,60,2012-10-14 06:53:00
11:53 PM,37.9,30.9,76,29.10,10.0,ENE,9.2,-,N/A,,Mostly Cloudy,60,2012-10-14 07:53:00